^^
Saratoga-Weather Station Historical Data
Daily Summary for September 1, 2021 Units:  Metric    English   Both
Daily Weekly Monthly Yearly Custom
  High: Low: Average:
Temperature: 8.7 °C 5.8 °C 6.8 °C
Dew Point: 7.8 °C 4.9 °C 5.9 °C
Humidity: 96% 91% 94%
Wind Speed: 19.5km/h 0km/h 5.5km/h
Wind Gust: 32.2km/h - -
Wind- - SW
Pressure: 1011.2 hPa 995.3 hPa -
Precipitation: 10.4 mm    
Historical Graphs
 
 
Tabular Data for September 1, 2021
Time Temperature Dew Point Pressure Wind Wind Speed Wind Gust Humidity Rainfall Rate (Hourly) solar
00:03 5.8 °C 4.9 °C 1011.2 hPa NW 6.4 km/h 12.9 km/h 94% 0.0 mm 0 W/m2
00:08 5.8 °C 4.9 °C 1011.2 hPa NNW 4.7 km/h 19.3 km/h 94% 0.0 mm 0 W/m2
00:13 5.8 °C 4.9 °C 1011.2 hPa NW 7.9 km/h 8 km/h 94% 0.0 mm 0 W/m2
00:18 5.8 °C 5.1 °C 1011.2 hPa South 3.2 km/h 16.1 km/h 95% 0.0 mm 0 W/m2
00:23 5.8 °C 5.1 °C 1010.8 hPa SW 14.3 km/h 16.1 km/h 95% 0.0 mm 0 W/m2
00:28 5.8 °C 5.1 °C 1010.8 hPa NW 7.9 km/h 8 km/h 95% 0.0 mm 0 W/m2
00:33 5.8 °C 5.1 °C 1010.8 hPa WNW 6.4 km/h 8 km/h 95% 0.0 mm 0 W/m2
00:38 5.8 °C 5.1 °C 1010.8 hPa West 1.4 km/h 14.5 km/h 95% 0.0 mm 0 W/m2
00:43 5.8 °C 5.1 °C 1010.8 hPa WNW 9.7 km/h 14.5 km/h 95% 0.0 mm 0 W/m2
00:48 5.8 °C 5.1 °C 1010.5 hPa West 11.1 km/h 11.3 km/h 95% 0.0 mm 0 W/m2
00:53 5.8 °C 5.1 °C 1010.2 hPa WSW 1.4 km/h 11.3 km/h 95% 0.0 mm 0 W/m2
00:58 5.8 °C 5.1 °C 1010.2 hPa NW 4.7 km/h 11.3 km/h 95% 0.0 mm 0 W/m2
01:03 5.8 °C 5.1 °C 1010.2 hPa WNW 3.2 km/h 11.3 km/h 95% 0.0 mm 0 W/m2
01:08 5.9 °C 5.2 °C 1010.2 hPa North 4.7 km/h 11.3 km/h 95% 0.0 mm 0 W/m2
01:13 5.9 °C 5.2 °C 1010.2 hPa NW 6.4 km/h 12.9 km/h 95% 0.0 mm 0 W/m2
01:18 5.9 °C 5.2 °C 1010.2 hPa NW 6.4 km/h 11.3 km/h 95% 0.0 mm 0 W/m2
01:23 5.9 °C 5.2 °C 1010.2 hPa East 3.2 km/h 11.3 km/h 95% 0.2 mm 0 W/m2
01:28 5.9 °C 5.2 °C 1009.8 hPa West 3.2 km/h 19.3 km/h 95% 0.2 mm 0 W/m2
01:33 5.9 °C 5.2 °C 1009.8 hPa WNW 6.4 km/h 17.7 km/h 95% 0.2 mm 0 W/m2
01:38 5.9 °C 5.2 °C 1009.5 hPa West 4.7 km/h 11.3 km/h 95% 0.2 mm 0 W/m2
01:43 5.9 °C 5.2 °C 1009.5 hPa NW 4.7 km/h 19.3 km/h 95% 0.2 mm 0 W/m2
01:48 6 °C 5.3 °C 1009.5 hPa West 4.7 km/h 11.3 km/h 95% 0.2 mm 0 W/m2
01:53 6.1 °C 5.4 °C 1009.1 hPa WSW 11.1 km/h 14.5 km/h 95% 0.2 mm 0 W/m2
01:58 6.1 °C 5.4 °C 1009.1 hPa WNW 7.9 km/h 8 km/h 95% 0.2 mm 0 W/m2
02:03 6.1 °C 5.4 °C 1009.1 hPa West 3.2 km/h 32.2 km/h 95% 0.2 mm 0 W/m2
02:08 6.1 °C 5.4 °C 1008.8 hPa NNW 4.7 km/h 9.7 km/h 95% 0.2 mm 0 W/m2
02:13 6.2 °C 5.3 °C 1008.8 hPa WNW 11.1 km/h 12.9 km/h 94% 0.2 mm 0 W/m2
02:18 6.2 °C 5.3 °C 1008.8 hPa South 4.7 km/h 9.7 km/h 94% 0.2 mm 0 W/m2
02:23 6.2 °C 5.3 °C 1008.8 hPa NE 11.1 km/h 11.3 km/h 94% 0.0 mm 0 W/m2
02:28 6.3 °C 5.4 °C 1008.8 hPa SW 1.4 km/h 25.7 km/h 94% 0.0 mm 0 W/m2
02:33 6.3 °C 5.4 °C 1008.8 hPa WNW 1.4 km/h 19.3 km/h 94% 0.0 mm 0 W/m2
02:38 6.4 °C 5.4 °C 1008.5 hPa NNW 3.2 km/h 20.9 km/h 93% 0.0 mm 0 W/m2
02:43 6.3 °C 5.3 °C 1008.5 hPa South 7.9 km/h 19.3 km/h 93% 0.0 mm 0 W/m2
02:48 6.3 °C 5.3 °C 1008.5 hPa North 13 km/h 12.9 km/h 93% 0.0 mm 0 W/m2
02:53 6.3 °C 5.3 °C 1008.5 hPa NNW 3.2 km/h 19.3 km/h 93% 0.0 mm 0 W/m2
02:58 6.3 °C 5.3 °C 1008.1 hPa SW 3.2 km/h 12.9 km/h 93% 0.0 mm 0 W/m2
03:03 6.3 °C 5.3 °C 1008.1 hPa ENE 6.4 km/h 9.7 km/h 93% 0.0 mm 0 W/m2
03:08 6.2 °C 5.2 °C 1007.8 hPa WNW 3.2 km/h 8 km/h 93% 0.0 mm 0 W/m2
03:13 6.2 °C 5.2 °C 1007.8 hPa West 3.2 km/h 19.3 km/h 93% 0.0 mm 0 W/m2
03:18 6.2 °C 5.2 °C 1007.5 hPa NNW 4.7 km/h 6.4 km/h 93% 0.0 mm 0 W/m2
03:23 6.2 °C 5.3 °C 1007.8 hPa WSW 6.4 km/h 24.1 km/h 94% 0.0 mm 0 W/m2
03:28 6.2 °C 5.3 °C 1007.5 hPa WNW 11.1 km/h 16.1 km/h 94% 0.0 mm 0 W/m2
03:33 6.1 °C 5.2 °C 1007.5 hPa Calm   24.1 km/h 94% 0.0 mm 0 W/m2
03:38 6.2 °C 5.3 °C 1007.5 hPa WNW 1.4 km/h 16.1 km/h 94% 0.0 mm 0 W/m2
03:43 6.2 °C 5.2 °C 1007.1 hPa West 4.7 km/h 6.4 km/h 93% 0.0 mm 0 W/m2
03:48 6.2 °C 5.2 °C 1007.1 hPa NW 7.9 km/h 11.3 km/h 93% 0.0 mm 0 W/m2
03:53 6.2 °C 5.2 °C 1006.8 hPa SSW 9.7 km/h 11.3 km/h 93% 0.0 mm 0 W/m2
03:58 6.2 °C 5.2 °C 1006.8 hPa North 3.2 km/h 17.7 km/h 93% 0.0 mm 0 W/m2
04:03 6.2 °C 5.2 °C 1006.4 hPa SE 1.4 km/h 16.1 km/h 93% 0.2 mm 0 W/m2
04:08 6.2 °C 5.2 °C 1006.4 hPa WSW 11.1 km/h 11.3 km/h 93% 0.2 mm 0 W/m2
04:13 6.2 °C 5.2 °C 1006.4 hPa NNW 7.9 km/h 16.1 km/h 93% 0.2 mm 0 W/m2
04:18 6.2 °C 5.2 °C 1006.1 hPa North 4.7 km/h 9.7 km/h 93% 0.2 mm 0 W/m2
04:23 6.1 °C 5.1 °C 1006.1 hPa ENE 3.2 km/h 12.9 km/h 93% 0.2 mm 0 W/m2
04:28 6.1 °C 5.1 °C 1006.1 hPa NW 1.4 km/h 4.8 km/h 93% 0.2 mm 0 W/m2
04:33 6.1 °C 5.1 °C 1005.8 hPa SW 3.2 km/h 6.4 km/h 93% 0.2 mm 0 W/m2
04:38 6.1 °C 5.1 °C 1005.8 hPa Calm   14.5 km/h 93% 0.2 mm 0 W/m2
04:43 6.1 °C 5.1 °C 1005.8 hPa Calm   4.8 km/h 93% 0.2 mm 0 W/m2
04:48 6.1 °C 5.1 °C 1005.4 hPa West 3.2 km/h 6.4 km/h 93% 0.2 mm 0 W/m2
04:53 6.2 °C 5.2 °C 1005.8 hPa NW 6.4 km/h 8 km/h 93% 0.2 mm 0 W/m2
04:58 6.2 °C 5.2 °C 1005.4 hPa South 3.2 km/h 16.1 km/h 93% 0.2 mm 0 W/m2
05:03 6.2 °C 5.2 °C 1005.4 hPa North 6.4 km/h 8 km/h 93% 0.0 mm 0 W/m2
05:08 6.3 °C 5.1 °C 1005.1 hPa NW 6.4 km/h 16.1 km/h 92% 0.0 mm 0 W/m2
05:13 6.4 °C 5.2 °C 1005.1 hPa NNE 4.7 km/h 6.4 km/h 92% 0.0 mm 0 W/m2
05:18 6.4 °C 5.2 °C 1005.1 hPa WNW 3.2 km/h 19.3 km/h 92% 0.0 mm 0 W/m2
05:23 6.5 °C 5.3 °C 1004.7 hPa West 3.2 km/h 16.1 km/h 92% 0.0 mm 0 W/m2
05:28 6.6 °C 5.4 °C 1004.7 hPa SSW 1.4 km/h 19.3 km/h 92% 0.0 mm 0 W/m2
05:33 6.7 °C 5.3 °C 1004.7 hPa NE 3.2 km/h 17.7 km/h 91% 0.0 mm 0 W/m2
05:38 6.7 °C 5.3 °C 1004.4 hPa NNE 1.4 km/h 8 km/h 91% 0.0 mm 0 W/m2
05:43 6.6 °C 5.2 °C 1004.4 hPa WSW 1.4 km/h 17.7 km/h 91% 0.0 mm 0 W/m2
05:48 6.6 °C 5.2 °C 1004.1 hPa NW 1.4 km/h 8 km/h 91% 0.0 mm 0 W/m2
05:53 6.6 °C 5.4 °C 1004.1 hPa WNW 4.7 km/h 12.9 km/h 92% 0.0 mm 0 W/m2
05:58 6.6 °C 5.4 °C 1004.1 hPa WSW 4.7 km/h 8 km/h 92% 0.0 mm 0 W/m2
06:03 6.5 °C 5.3 °C 1003.7 hPa NW 4.7 km/h 8 km/h 92% 0.0 mm 0 W/m2
06:08 6.5 °C 5.3 °C 1004.1 hPa NW 4.7 km/h 14.5 km/h 92% 0.0 mm 0 W/m2
06:13 6.4 °C 5.2 °C 1003.7 hPa WNW 6.4 km/h 12.9 km/h 92% 0.0 mm 0 W/m2
06:18 6.4 °C 5.4 °C 1003.7 hPa North 3.2 km/h 8 km/h 93% 0.0 mm 0 W/m2
06:23 6.4 °C 5.4 °C 1003.7 hPa NNW 1.4 km/h 6.4 km/h 93% 0.0 mm 0 W/m2
06:28 6.4 °C 5.4 °C 1003.7 hPa West 11.1 km/h 11.3 km/h 93% 0.0 mm 0 W/m2
06:33 6.5 °C 5.4 °C 1003.4 hPa Calm   3.2 km/h 93% 0.0 mm 0 W/m2
06:38 6.6 °C 5.5 °C 1003.0 hPa NNW 3.2 km/h 6.4 km/h 93% 0.0 mm 0 W/m2
06:43 6.6 °C 5.5 °C 1003.0 hPa NNE 3.2 km/h 4.8 km/h 93% 0.0 mm 0 W/m2
06:48 6.6 °C 5.5 °C 1003.0 hPa ENE 1.4 km/h 6.4 km/h 93% 0.0 mm 0 W/m2
06:53 6.7 °C 5.6 °C 1003.0 hPa NNE 4.7 km/h 6.4 km/h 93% 0.0 mm 0 W/m2
06:58 6.7 °C 5.6 °C 1002.7 hPa NE 1.4 km/h 3.2 km/h 93% 0.0 mm 0 W/m2
07:03 6.8 °C 5.7 °C 1002.7 hPa North 1.4 km/h 6.4 km/h 93% 0.0 mm 0 W/m2
07:08 6.8 °C 5.7 °C 1002.7 hPa East 3.2 km/h 8 km/h 93% 0.0 mm 0 W/m2
07:13 6.8 °C 5.7 °C 1002.4 hPa NNE 6.4 km/h 11.3 km/h 93% 0.0 mm 0 W/m2
07:18 6.8 °C 5.7 °C 1002.4 hPa NE 3.2 km/h 8 km/h 93% 0.0 mm 0 W/m2
07:23 6.8 °C 5.7 °C 1002.4 hPa WNW 7.9 km/h 22.5 km/h 93% 0.0 mm 0 W/m2
07:28 6.8 °C 5.7 °C 1002.0 hPa NE 1.4 km/h 8 km/h 93% 0.0 mm 0 W/m2
07:33 6.8 °C 5.7 °C 1002.0 hPa NW 1.4 km/h 22.5 km/h 93% 0.0 mm 0 W/m2
07:38 6.8 °C 5.7 °C 1002.0 hPa NW 6.4 km/h 16.1 km/h 93% 0.0 mm 0 W/m2
07:43 6.7 °C 5.6 °C 1002.0 hPa West 9.7 km/h 19.3 km/h 93% 0.0 mm 0 W/m2
07:48 6.7 °C 5.6 °C 1001.7 hPa SW 7.9 km/h 9.7 km/h 93% 0.0 mm 0 W/m2
07:53 6.6 °C 5.5 °C 1001.7 hPa ENE 6.4 km/h 6.4 km/h 93% 0.2 mm 0 W/m2
07:58 6.6 °C 5.7 °C 1001.7 hPa NE 4.7 km/h 12.9 km/h 94% 0.5 mm 0 W/m2
08:03 6.6 °C 5.7 °C 1001.4 hPa South 3.2 km/h 8 km/h 94% 0.5 mm 0 W/m2
08:08 6.5 °C 5.6 °C 1001.4 hPa North 4.7 km/h 6.4 km/h 94% 1.0 mm 0 W/m2
08:13 6.4 °C 5.5 °C 1001.0 hPa NE 3.2 km/h 8 km/h 94% 1.3 mm 0 W/m2
08:18 6.4 °C 5.5 °C 1001.0 hPa NW 6.4 km/h 11.3 km/h 94% 1.5 mm 0 W/m2
08:23 6.4 °C 5.5 °C 1001.0 hPa NNE 4.7 km/h 6.4 km/h 94% 1.5 mm 0 W/m2
08:28 6.4 °C 5.5 °C 1000.7 hPa WSW 13 km/h 17.7 km/h 94% 2.0 mm 0 W/m2
08:33 6.5 °C 5.6 °C 1000.7 hPa West 3.2 km/h 14.5 km/h 94% 2.0 mm 0 W/m2
08:38 6.5 °C 5.6 °C 1000.7 hPa NNW 3.2 km/h 9.7 km/h 94% 2.0 mm 5 W/m2
08:43 6.4 °C 5.5 °C 1000.3 hPa NE 3.2 km/h 9.7 km/h 94% 2.3 mm 11 W/m2
08:48 6.4 °C 5.5 °C 1000.3 hPa NNW 7.9 km/h 19.3 km/h 94% 2.3 mm 9 W/m2
08:53 6.4 °C 5.5 °C 1000.3 hPa WNW 16.3 km/h 20.9 km/h 94% 2.3 mm 11 W/m2
08:58 6.4 °C 5.5 °C 1000.3 hPa NNW 6.4 km/h 11.3 km/h 94% 2.3 mm 12 W/m2
09:03 6.5 °C 5.6 °C 1000.0 hPa NE 3.2 km/h 20.9 km/h 94% 2.0 mm 11 W/m2
09:08 6.5 °C 5.6 °C 1000.0 hPa ENE 13 km/h 14.5 km/h 94% 1.8 mm 21 W/m2
09:13 6.6 °C 5.7 °C 1000.0 hPa NE 1.4 km/h 16.1 km/h 94% 1.8 mm 23 W/m2
09:18 6.6 °C 5.7 °C 1000.0 hPa West 3.2 km/h 20.9 km/h 94% 1.8 mm 26 W/m2
09:23 6.6 °C 5.7 °C 999.7 hPa Calm   11.3 km/h 94% 1.8 mm 19 W/m2
09:28 6.6 °C 5.7 °C 999.7 hPa East 6.4 km/h 22.5 km/h 94% 1.5 mm 12 W/m2
09:33 6.6 °C 5.7 °C 999.7 hPa NW 4.7 km/h 16.1 km/h 94% 1.8 mm 12 W/m2
09:38 6.6 °C 5.7 °C 999.3 hPa NNE 6.4 km/h 22.5 km/h 94% 2.0 mm 14 W/m2
09:43 6.6 °C 5.7 °C 999.3 hPa NNW 3.2 km/h 8 km/h 94% 2.3 mm 21 W/m2
09:48 6.7 °C 5.8 °C 999.3 hPa North 3.2 km/h 14.5 km/h 94% 2.3 mm 19 W/m2
09:54 6.7 °C 5.8 °C 999.3 hPa WSW 3.2 km/h 17.7 km/h 94% 2.3 mm 19 W/m2
09:59 6.7 °C 5.8 °C 999.3 hPa NNW 7.9 km/h 9.7 km/h 94% 2.3 mm 18 W/m2
10:04 6.7 °C 5.8 °C 999.3 hPa ENE 7.9 km/h 19.3 km/h 94% 2.3 mm 16 W/m2
10:09 6.7 °C 5.8 °C 999.0 hPa West 6.4 km/h 14.5 km/h 94% 2.8 mm 35 W/m2
10:14 6.8 °C 5.9 °C 999.0 hPa NW 6.4 km/h 27.4 km/h 94% 2.5 mm 32 W/m2
10:19 6.8 °C 6.1 °C 999.0 hPa NNW 7.9 km/h 12.9 km/h 95% 2.5 mm 44 W/m2
10:24 6.8 °C 6.1 °C 999.0 hPa North 13 km/h 27.4 km/h 95% 2.5 mm 37 W/m2
10:29 6.8 °C 6.1 °C 998.6 hPa SW 1.4 km/h 12.9 km/h 95% 2.5 mm 35 W/m2
10:34 6.8 °C 6.1 °C 998.6 hPa WNW 19.5 km/h 22.5 km/h 95% 2.5 mm 23 W/m2
10:39 6.8 °C 6.1 °C 998.6 hPa ENE 4.7 km/h 11.3 km/h 95% 2.5 mm 21 W/m2
10:44 6.8 °C 6.1 °C 998.6 hPa WNW 3.2 km/h 22.5 km/h 95% 2.3 mm 26 W/m2
10:49 6.9 °C 6.2 °C 998.6 hPa ESE 3.2 km/h 12.9 km/h 95% 2.3 mm 21 W/m2
10:54 6.9 °C 6.2 °C 998.6 hPa West 6.4 km/h 19.3 km/h 95% 2.3 mm 16 W/m2
10:59 6.9 °C 6.2 °C 998.3 hPa West 3.2 km/h 9.7 km/h 95% 2.0 mm 26 W/m2
11:04 6.9 °C 6.2 °C 998.3 hPa North 6.4 km/h 19.3 km/h 95% 1.8 mm 23 W/m2
11:09 7 °C 6.3 °C 998.3 hPa ESE 6.4 km/h 11.3 km/h 95% 1.5 mm 23 W/m2
11:14 7 °C 6.3 °C 998.0 hPa SSE 4.7 km/h 14.5 km/h 95% 1.5 mm 25 W/m2
11:19 7.1 °C 6.4 °C 998.0 hPa NW 7.9 km/h 14.5 km/h 95% 1.3 mm 42 W/m2
11:24 7.1 °C 6.4 °C 998.0 hPa ENE 3.2 km/h 12.9 km/h 95% 1.3 mm 35 W/m2
11:29 7.1 °C 6.4 °C 998.0 hPa ENE 3.2 km/h 16.1 km/h 95% 1.3 mm 51 W/m2
11:34 7.2 °C 6.5 °C 998.0 hPa NE 11.1 km/h 11.3 km/h 95% 1.0 mm 33 W/m2
11:39 7.2 °C 6.5 °C 997.6 hPa WNW 4.7 km/h 16.1 km/h 95% 1.0 mm 30 W/m2
11:44 7.2 °C 6.5 °C 997.3 hPa SE 3.2 km/h 16.1 km/h 95% 0.8 mm 44 W/m2
11:49 7.2 °C 6.5 °C 997.3 hPa West 9.7 km/h 16.1 km/h 95% 0.8 mm 56 W/m2
11:54 7.2 °C 6.5 °C 997.3 hPa WSW 4.7 km/h 8 km/h 95% 0.8 mm 44 W/m2
11:59 7.2 °C 6.5 °C 997.3 hPa East 13 km/h 16.1 km/h 95% 1.0 mm 42 W/m2
12:04 7.3 °C 6.6 °C 997.3 hPa North 6.4 km/h 11.3 km/h 95% 1.0 mm 30 W/m2
12:09 7.3 °C 6.6 °C 997.0 hPa NW 6.4 km/h 14.5 km/h 95% 1.0 mm 53 W/m2
12:14 7.3 °C 6.6 °C 997.0 hPa NNE 13 km/h 16.1 km/h 95% 1.3 mm 40 W/m2
12:19 7.3 °C 6.6 °C 997.0 hPa NNE 1.4 km/h 9.7 km/h 95% 1.3 mm 23 W/m2
12:24 7.4 °C 6.7 °C 997.0 hPa ENE 1.4 km/h 3.2 km/h 95% 1.0 mm 39 W/m2
12:29 7.4 °C 6.7 °C 996.6 hPa North 4.7 km/h 6.4 km/h 95% 1.0 mm 26 W/m2
12:34 7.4 °C 6.7 °C 997.0 hPa SSW 4.7 km/h 11.3 km/h 95% 1.0 mm 19 W/m2
12:39 7.4 °C 6.7 °C 997.0 hPa Calm   6.4 km/h 95% 0.8 mm 19 W/m2
12:44 7.4 °C 6.7 °C 996.6 hPa West 3.2 km/h 8 km/h 95% 0.8 mm 19 W/m2
12:49 7.5 °C 6.8 °C 996.3 hPa SSW 6.4 km/h 8 km/h 95% 0.8 mm 26 W/m2
12:54 7.6 °C 6.9 °C 996.3 hPa WNW 3.2 km/h 8 km/h 95% 0.8 mm 32 W/m2
12:59 7.6 °C 6.9 °C 996.3 hPa WNW 1.4 km/h 4.8 km/h 95% 0.5 mm 23 W/m2
13:04 7.7 °C 6.9 °C 996.3 hPa NE 1.4 km/h 9.7 km/h 95% 0.8 mm 19 W/m2
13:09 7.7 °C 6.9 °C 995.9 hPa Calm   6.4 km/h 95% 0.8 mm 33 W/m2
13:14 7.7 °C 7.1 °C 995.9 hPa WNW 7.9 km/h 14.5 km/h 96% 0.5 mm 60 W/m2
13:19 7.8 °C 7.2 °C 995.9 hPa SSW 3.2 km/h 9.7 km/h 96% 0.5 mm 40 W/m2
13:24 7.9 °C 7.1 °C 995.9 hPa Calm   9.7 km/h 95% 0.5 mm 33 W/m2
13:29 8.1 °C 7.3 °C 995.9 hPa West 4.7 km/h 6.4 km/h 95% 0.5 mm 62 W/m2
13:34 8.1 °C 7.3 °C 995.6 hPa NNW 6.4 km/h 16.1 km/h 95% 0.5 mm 51 W/m2
13:39 8.2 °C 7.4 °C 995.6 hPa NW 4.7 km/h 17.7 km/h 95% 0.5 mm 91 W/m2
13:44 8.3 °C 7.5 °C 995.6 hPa West 4.7 km/h 11.3 km/h 95% 0.5 mm 88 W/m2
13:49 8.4 °C 7.6 °C 995.6 hPa SW 4.7 km/h 16.1 km/h 95% 0.5 mm 54 W/m2
13:54 8.5 °C 7.6 °C 995.3 hPa WSW 3.2 km/h 9.7 km/h 94% 0.2 mm 74 W/m2
13:59 8.6 °C 7.7 °C 995.3 hPa West 3.2 km/h 19.3 km/h 94% 0.2 mm 62 W/m2
14:04 8.7 °C 7.8 °C 995.3 hPa WNW 13 km/h 20.9 km/h 94% 0.2 mm 32 W/m2
14:09 8.7 °C 7.6 °C 995.3 hPa WSW 6.4 km/h 11.3 km/h 93% 0.5 mm 14 W/m2
14:14 8.7 °C 7.6 °C 995.3 hPa NW 6.4 km/h 17.7 km/h 93% 0.5 mm 23 W/m2
14:19 8.6 °C 7.5 °C 995.3 hPa WNW 7.9 km/h 17.7 km/h 93% 0.8 mm 32 W/m2
14:24 8.6 °C 7.5 °C 995.3 hPa WNW 6.4 km/h 17.7 km/h 93% 0.8 mm 40 W/m2
14:29 8.6 °C 7.5 °C 995.3 hPa WSW 4.7 km/h 20.9 km/h 93% 1.0 mm 30 W/m2
14:34 8.6 °C 7.5 °C 995.3 hPa WSW 19.5 km/h 19.3 km/h 93% 1.3 mm 35 W/m2
14:39 8.6 °C 7.5 °C 995.3 hPa SW 7.9 km/h 22.5 km/h 93% 1.3 mm 105 W/m2
14:44 8.6 °C 7.5 °C 995.3 hPa WNW 6.4 km/h 19.3 km/h 93% 1.3 mm 86 W/m2
14:49 8.6 °C 7.5 °C 995.3 hPa WNW 4.7 km/h 12.9 km/h 93% 1.3 mm 30 W/m2
14:54 8.6 °C 7.5 °C 995.3 hPa WSW 6.4 km/h 19.3 km/h 93% 1.3 mm 19 W/m2
14:59 8.6 °C 7.5 °C 995.3 hPa WSW 11.1 km/h 22.5 km/h 93% 1.3 mm 23 W/m2
15:04 8.5 °C 7.4 °C 995.6 hPa West 6.4 km/h 12.9 km/h 93% 1.0 mm 25 W/m2
15:09 8.4 °C 7.3 °C 995.6 hPa NW 17.7 km/h 22.5 km/h 93% 0.8 mm 46 W/m2
15:14 8.5 °C 7.4 °C 995.6 hPa West 13 km/h 12.9 km/h 93% 0.8 mm 60 W/m2
15:19 8.4 °C 7.2 °C 995.6 hPa WSW 6.4 km/h 20.9 km/h 92% 0.5 mm 32 W/m2
15:24 8.4 °C 7.2 °C 995.6 hPa West 16.3 km/h 20.9 km/h 92% 0.5 mm 46 W/m2
Juneau County Weather
Compliments of Weather Underground - 2 mb